Torna al catalogo

FENGYUN 1C DEB

AttivoPO
NORAD 31300·DEBRIS·🇨🇳 China

Lanciato May 10, 1999 da Taiyuan Satellite Launch Center

Loading…

Prossimi Passaggi (prossime 24 ore)

TLE

AggiornatoSource: Space-Track

Epoca: Sep 14, 2026, 03:01 UTC

1 31300U 99025BPJ 26257.12629693  .00001641  00000-0  83744-3 0  9993
2 31300  99.5381   0.6505 0058864  12.2789 107.8499 14.16353723   485

Traccia FENGYUN 1C DEB in tempo reale con AllMySat

Download on the App Store